N3898R KILN-KLCK

Flight info

Callsign N3898R
Flight time 0h 25m
Altitude 4000
Route JAKTZ CORDR
Aircraft C172/L-SDE3/L

Departure

Time 2026-05-09 00:07
Airport Wilmington Airpark (KILN)

Arrival

Time 2026-05-09 00:32
Airport Rickenbacker International Airport (KLCK)
Time Latitude Longitude Altitude Speed Heading
2026-05-08 23:55 39.44186 -83.78107 1070 ft 0 kts 217°
2026-05-09 00:00 39.44190 -83.78125 1070 ft 9 kts 303°
2026-05-09 00:00 39.44244 -83.78216 1070 ft 19 kts 307°
2026-05-09 00:00 39.44238 -83.78342 1069 ft 21 kts 226°
2026-05-09 00:00 39.44168 -83.78474 1067 ft 21 kts 296°
2026-05-09 00:01 39.44210 -83.78548 1066 ft 0 kts 306°
2026-05-09 00:04 39.44211 -83.78549 1066 ft 1 kts 304°
2026-05-09 00:05 39.44231 -83.78590 1065 ft 18 kts 292°
2026-05-09 00:05 39.44198 -83.78707 1064 ft 31 kts 220°
2026-05-09 00:05 39.44010 -83.78898 1069 ft 65 kts 218°
2026-05-09 00:05 39.43719 -83.79179 1164 ft 75 kts 218°
2026-05-09 00:06 39.43426 -83.79459 1305 ft 76 kts 218°
2026-05-09 00:06 39.43069 -83.79806 1454 ft 80 kts 219°
2026-05-09 00:06 39.42799 -83.80069 1562 ft 81 kts 219°
2026-05-09 00:06 39.42567 -83.80295 1654 ft 83 kts 219°
2026-05-09 00:07 39.42249 -83.80605 1777 ft 84 kts 219°
2026-05-09 00:07 39.41994 -83.80852 1901 ft 82 kts 219°
2026-05-09 00:07 39.41497 -83.81332 2145 ft 80 kts 219°
2026-05-09 00:07 39.41011 -83.81783 2387 ft 78 kts 213°
2026-05-09 00:08 39.40507 -83.81918 2602 ft 78 kts 184°
2026-05-09 00:08 39.39997 -83.81860 2779 ft 80 kts 179°
2026-05-09 00:08 39.39434 -83.81632 2937 ft 88 kts 153°
2026-05-09 00:08 39.38971 -83.80933 3115 ft 94 kts 126°
2026-05-09 00:09 39.38618 -83.80092 3286 ft 97 kts 122°
2026-05-09 00:09 39.38476 -83.79115 3455 ft 103 kts 85°
2026-05-09 00:09 39.38743 -83.78191 3628 ft 103 kts 58°
2026-05-09 00:09 39.39133 -83.77425 3833 ft 100 kts 54°
2026-05-09 00:10 39.39592 -83.76595 3980 ft 104 kts 51°
2026-05-09 00:10 39.40070 -83.75761 4017 ft 114 kts 51°
2026-05-09 00:10 39.40707 -83.74644 4019 ft 120 kts 52°
2026-05-09 00:10 39.41369 -83.73487 4016 ft 122 kts 51°
2026-05-09 00:11 39.42038 -83.72327 4016 ft 123 kts 51°
2026-05-09 00:11 39.42724 -83.71128 4015 ft 124 kts 52°
2026-05-09 00:11 39.43422 -83.69899 4015 ft 125 kts 52°
2026-05-09 00:11 39.44136 -83.68634 4015 ft 125 kts 52°
2026-05-09 00:12 39.44777 -83.67497 4015 ft 125 kts 52°
2026-05-09 00:12 39.45470 -83.66264 4015 ft 125 kts 52°
2026-05-09 00:12 39.46138 -83.65075 4015 ft 125 kts 52°
2026-05-09 00:12 39.46837 -83.63829 4015 ft 125 kts 52°
2026-05-09 00:13 39.47541 -83.62575 4015 ft 125 kts 52°
2026-05-09 00:13 39.48220 -83.61362 4015 ft 125 kts 52°
2026-05-09 00:13 39.48918 -83.60117 4015 ft 125 kts 52°
2026-05-09 00:13 39.49600 -83.58901 4015 ft 125 kts 52°
2026-05-09 00:14 39.50269 -83.57703 4015 ft 125 kts 52°
2026-05-09 00:14 39.50906 -83.56580 4015 ft 125 kts 52°
2026-05-09 00:14 39.51580 -83.55376 4015 ft 125 kts 52°
2026-05-09 00:14 39.52280 -83.54118 4016 ft 125 kts 52°
2026-05-09 00:15 39.52969 -83.52881 4016 ft 125 kts 52°
2026-05-09 00:15 39.53656 -83.51646 4016 ft 124 kts 51°
2026-05-09 00:15 39.54340 -83.50417 4016 ft 124 kts 51°
2026-05-09 00:15 39.55029 -83.49182 4016 ft 123 kts 50°
2026-05-09 00:16 39.55716 -83.47951 4016 ft 122 kts 50°
2026-05-09 00:16 39.56402 -83.46728 4016 ft 121 kts 49°
2026-05-09 00:16 39.57081 -83.45524 4016 ft 120 kts 49°
2026-05-09 00:16 39.57764 -83.44312 4015 ft 119 kts 49°
2026-05-09 00:17 39.58392 -83.43060 3997 ft 121 kts 61°
2026-05-09 00:17 39.58747 -83.41880 3963 ft 122 kts 64°
2026-05-09 00:17 39.59034 -83.40971 3967 ft 120 kts 62°
2026-05-09 00:17 39.59400 -83.39877 3940 ft 120 kts 60°
2026-05-09 00:18 39.59868 -83.38593 3906 ft 120 kts 59°
2026-05-09 00:18 39.60226 -83.37654 3880 ft 120 kts 58°
2026-05-09 00:18 39.60733 -83.36356 3865 ft 119 kts 58°
2026-05-09 00:18 39.61224 -83.35113 3831 ft 118 kts 58°
2026-05-09 00:19 39.61621 -83.34093 3809 ft 118 kts 59°
2026-05-09 00:19 39.62091 -83.32839 3809 ft 116 kts 60°
2026-05-09 00:19 39.62452 -83.31825 4025 ft 108 kts 61°
2026-05-09 00:19 39.62739 -83.30937 4034 ft 108 kts 62°
2026-05-09 00:20 39.63057 -83.30023 4053 ft 107 kts 59°
2026-05-09 00:20 39.63388 -83.29205 4083 ft 105 kts 54°
2026-05-09 00:20 39.63801 -83.28403 4083 ft 105 kts 47°
2026-05-09 00:20 39.64345 -83.27480 4053 ft 108 kts 51°
2026-05-09 00:21 39.64826 -83.26389 4039 ft 110 kts 56°
2026-05-09 00:21 39.65305 -83.25201 4041 ft 110 kts 58°
2026-05-09 00:21 39.65755 -83.24059 4041 ft 110 kts 58°
2026-05-09 00:21 39.66208 -83.22913 3974 ft 115 kts 58°
2026-05-09 00:22 39.66673 -83.21601 3841 ft 121 kts 68°
2026-05-09 00:22 39.66985 -83.20228 3711 ft 122 kts 70°
2026-05-09 00:22 39.67270 -83.18932 3587 ft 122 kts 71°
2026-05-09 00:22 39.67572 -83.17573 3459 ft 122 kts 71°
2026-05-09 00:23 39.67897 -83.16139 3322 ft 120 kts 71°
2026-05-09 00:23 39.68200 -83.14805 3178 ft 112 kts 71°
2026-05-09 00:23 39.68489 -83.13546 3038 ft 107 kts 70°
2026-05-09 00:23 39.68913 -83.12388 2897 ft 103 kts 57°
2026-05-09 00:24 39.69413 -83.11330 2761 ft 101 kts 51°
2026-05-09 00:24 39.69947 -83.10422 2636 ft 101 kts 49°
2026-05-09 00:24 39.70481 -83.09538 2512 ft 100 kts 49°
2026-05-09 00:24 39.71015 -83.08589 2382 ft 100 kts 51°
2026-05-09 00:25 39.71543 -83.07634 2275 ft 100 kts 52°
2026-05-09 00:25 39.71993 -83.06679 2309 ft 103 kts 58°
2026-05-09 00:25 39.72401 -83.05595 2294 ft 108 kts 65°
2026-05-09 00:25 39.72704 -83.04436 2384 ft 104 kts 62°
2026-05-09 00:26 39.73176 -83.03396 2318 ft 107 kts 54°
2026-05-09 00:26 39.73759 -83.02477 2240 ft 107 kts 45°
2026-05-09 00:26 39.74327 -83.01584 2317 ft 99 kts 51°
2026-05-09 00:26 39.74837 -83.00939 2209 ft 109 kts 39°
2026-05-09 00:27 39.75397 -83.00230 2010 ft 113 kts 44°
2026-05-09 00:27 39.75863 -82.99603 1891 ft 109 kts 46°
2026-05-09 00:27 39.76306 -82.98637 1796 ft 108 kts 60°
2026-05-09 00:27 39.76734 -82.97565 1718 ft 105 kts 58°
2026-05-09 00:28 39.77139 -82.96514 1618 ft 104 kts 56°
2026-05-09 00:28 39.77671 -82.95663 1576 ft 102 kts 47°
2026-05-09 00:28 39.78190 -82.94864 1618 ft 98 kts 47°
2026-05-09 00:28 39.78727 -82.94049 1616 ft 100 kts 46°
2026-05-09 00:29 39.79298 -82.93214 1644 ft 99 kts 45°
2026-05-09 00:29 39.79860 -82.92410 1728 ft 95 kts 45°
2026-05-09 00:29 39.80416 -82.91643 1747 ft 97 kts 43°
2026-05-09 00:29 39.80996 -82.90900 1754 ft 98 kts 42°
2026-05-09 00:30 39.81552 -82.90178 1730 ft 102 kts 43°
2026-05-09 00:30 39.82105 -82.89397 1656 ft 86 kts 46°
2026-05-09 00:30 39.82548 -82.88768 1550 ft 78 kts 40°
2026-05-09 00:30 39.83117 -82.88463 1384 ft 76 kts 352°
2026-05-09 00:31 39.83524 -82.88899 1291 ft 71 kts 283°
2026-05-09 00:31 39.83411 -82.89662 1165 ft 75 kts 248°
2026-05-09 00:31 39.83058 -82.90326 1026 ft 69 kts 230°
2026-05-09 00:31 39.82682 -82.90818 879 ft 67 kts 225°
2026-05-09 00:32 39.82344 -82.91263 764 ft 58 kts 226°
2026-05-09 00:32 39.82095 -82.91587 735 ft 37 kts 226°
2026-05-09 00:32 39.81858 -82.91910 733 ft 65 kts 224°
2026-05-09 00:32 39.81498 -82.92361 902 ft 72 kts 224°
2026-05-09 00:33 39.81131 -82.92802 1101 ft 74 kts 231°
2026-05-09 00:33 39.80766 -82.93360 1328 ft 76 kts 231°
2026-05-09 00:33 39.80338 -82.93924 1543 ft 81 kts 217°
2026-05-09 00:33 39.79719 -82.93989 1721 ft 89 kts 152°
2026-05-09 00:34 39.79281 -82.93366 1831 ft 94 kts 104°
2026-05-09 00:34 39.79534 -82.92514 1795 ft 95 kts 46°
2026-05-09 00:34 39.79972 -82.91857 1796 ft 95 kts 46°
2026-05-09 00:34 39.80402 -82.91222 1826 ft 93 kts 46°
2026-05-09 00:35 39.80765 -82.90723 1826 ft 94 kts 42°
2026-05-09 00:35 39.81011 -82.90404 1841 ft 93 kts 42°
2026-05-09 00:35 39.81485 -82.89799 1825 ft 90 kts 43°
2026-05-09 00:35 39.81908 -82.89253 1765 ft 83 kts 40°
2026-05-09 00:36 39.82329 -82.88798 1664 ft 80 kts 27°
2026-05-09 00:36 39.82760 -82.88496 1557 ft 75 kts
2026-05-09 00:36 39.83118 -82.88705 1477 ft 70 kts 317°
2026-05-09 00:36 39.83232 -82.89346 1283 ft 74 kts 253°
2026-05-09 00:37 39.83023 -82.89952 1135 ft 67 kts 248°
2026-05-09 00:37 39.82830 -82.90498 969 ft 65 kts 243°
2026-05-09 00:37 39.82565 -82.90961 838 ft 60 kts 227°
2026-05-09 00:37 39.82308 -82.91313 750 ft 55 kts 226°
2026-05-09 00:38 39.82113 -82.91566 736 ft 40 kts 226°
2026-05-09 00:38 39.81916 -82.91828 734 ft 63 kts 225°
2026-05-09 00:38 39.81507 -82.92336 875 ft 77 kts 223°
2026-05-09 00:38 39.81089 -82.92870 1104 ft 80 kts 226°
2026-05-09 00:39 39.80715 -82.93378 1329 ft 80 kts 227°
2026-05-09 00:39 39.80364 -82.94034 1443 ft 91 kts 250°
2026-05-09 00:39 39.80215 -82.94862 1606 ft 94 kts 271°
2026-05-09 00:39 39.80494 -82.95631 1635 ft 101 kts 313°
2026-05-09 00:40 39.80933 -82.96203 1696 ft 92 kts 316°
2026-05-09 00:40 39.81302 -82.96664 1751 ft 92 kts 315°
2026-05-09 00:40 39.81555 -82.96996 1739 ft 96 kts 314°